Location: Songkhla
(7.2000°N, 100.6000°E)
Time: 09:29:50
(UTC+07:00)

First-Move - Pass Details

Date: 07 August 2021
Orbit: 576 x 665 km, 97.6° (Epoch: 24 September)

Event Time Altitude Azimuth Distance (km) Brightness Sun altitude
Rises 05:11:34 0° 356° (N) 2,982 ? -15.0°
Reaches altitude 10° 05:13:57 10° 347° (NNW) 2,076 ? -14.4°
Maximum altitude 05:18:02 34° 282° (WNW) 1,101 ? -13.4°
Enters shadow 05:21:18 15° 224° (SW) 1,784 ? -12.7°
